Location: Columbia
(38.9520°N, 92.3340°W)
Time: 19:35:42
(UTC-05:00)

Meteor 1-4 Rocket - Visible Passes

Search period start: 24 April 2018 00:00
Search period end: 04 May 2018 00:00
Orbit: 451 x 507 km, 81.2° (Epoch: 24 April)

Date Brightness Start Highest point End Pass type
(mag) Time Alt. Az. Time Alt. Az. Time Alt. Az.
24 Apr 5.9 23:36:19 10° NW 23:36:22 10° NW 23:36:22 10° NW visible
25 Apr 5.4 23:09:35 10° NNW 23:10:26 16° NNW 23:10:26 16° NNW visible
26 Apr 4.7 22:43:06 10° N 22:44:32 23° NNW 22:44:32 23° NNW visible
27 Apr 4.1 22:16:47 10° N 22:18:40 28° NNE 22:18:40 28° NNE visible
28 Apr 3.9 21:50:41 10° NNE 21:52:48 25° NE 21:52:48 25° NE visible
28 Apr 5.7 23:26:59 10° WNW 23:27:04 10° WNW 23:27:04 10° WNW visible
29 Apr 4.3 21:24:52 10° NNE 21:26:58 17° ENE 21:26:58 17° ENE visible
29 Apr 5.0 22:59:36 10° NW 23:01:15 18° WNW 23:01:15 18° WNW visible
30 Apr 4.7 21:00:01 10° ENE 21:00:42 10° ENE 21:01:09 10° ENE visible
30 Apr 4.0 22:32:46 10° NNW 22:35:26 34° WNW 22:35:26 34° WNW visible
01 May 2.6 22:06:11 10° NNW 22:09:39 68° W 22:09:39 68° W visible
02 May 2.4 21:39:48 10° N 21:43:15 64° E 21:43:54 51° SE visible
03 May 3.2 21:13:36 10° N 21:16:50 35° ENE 21:18:10 25° ESE visible
03 May 5.5 22:50:50 10° WNW 22:51:32 10° W 22:52:12 10° W visible
